FW4834 Weather Reports


Display with metric or nautical units.
time (UTC)temp
F
wind
direction
speed
MPH
gust
MPH
rain 1hr
in
rain 24hr
in
rain mn
in
humidity
%
barometer
mb
20260506033038 70 307 0.0 0.0 0.00 0.00 0.00 39 1010.2
20260506032538 71 334 0.0 0.0 0.00 0.00 0.00 38 1010.1
20260506032037 71 299 0.0 0.0 0.00 0.00 0.00 38 1010.1
20260506031539 72 306 0.0 0.0 0.00 0.00 0.00 38 1010.1
20260506031038 72 325 0.0 0.0 0.00 0.00 0.00 37 1010.0
20260506030538 73 331 0.0 0.0 0.00 0.00 0.00 37 1009.9
20260506030037 73 297 0.0 0.0 0.00 0.00 0.00 37 1009.9
20260506025537 73 311 0.0 1.0 0.00 0.00 0.00 37 1009.8
20260506025036 74 11 0.0 1.0 0.00 0.00 0.00 36 1009.7
20260506024540 74 341 0.0 0.0 0.00 0.00 0.00 36 1009.6
20260506024036 74 355 0.0 1.0 0.00 0.00 0.00 35 1009.5
20260506023536 75 5 0.0 1.0 0.00 0.00 0.00 34 1009.4
20260506023036 75 335 0.0 1.0 0.00 0.00 0.00 34 1009.4
20260506022536 75 9 0.0 1.0 0.00 0.00 0.00 34 1009.4
20260506022034 75 317 0.0 1.0 0.00 0.00 0.00 35 1009.3
20260506021534 76 332 0.0 6.0 0.00 0.00 0.00 35 1009.2
20260506021034 76 306 0.0 6.0 0.00 0.00 0.00 35 1009.1
20260506020533 76 306 0.0 6.0 0.00 0.00 0.00 36 1009.1
20260506020033 77 333 0.0 4.0 0.00 0.00 0.00 35 1009.0
20260506015534 77 299 0.0 1.0 0.00 0.00 0.00 37 1009.0
20260506015033 77 319 0.0 3.0 0.00 0.00 0.00 39 1009.0
20260506014532 78 299 0.0 3.0 0.00 0.00 0.00 39 1009.0
20260506014034 78 293 0.0 0.0 0.00 0.00 0.00 39 1009.0
20260506013532 78 288 0.0 0.0 0.00 0.00 0.00 39 1009.0
20260506013033 78 271 0.0 0.0 0.00 0.00 0.00 39 1008.9
20260506012532 78 350 0.0 2.0 0.00 0.00 0.00 38 1009.0
20260506012031 78 271 0.0 2.0 0.00 0.00 0.00 40 1009.0
20260506011558 78 298 0.0 0.0 0.00 0.00 0.00 39 1009.0
20260506011030 77 301 0.0 0.0 0.00 0.00 0.00 40 1009.0
20260506010530 77 5 0.0 4.0 0.00 0.00 0.00 39 1008.9
20260506010030 78 312 0.0 4.0 0.00 0.00 0.00 39 1008.9
20260506005529 78 252 0.0 1.0 0.00 0.00 0.00 39 1008.9
20260506005029 78 294 0.0 1.0 0.00 0.00 0.00 39 1008.9
20260506004529 78 305 0.0 1.0 0.00 0.00 0.00 39 1008.8
20260506004030 78 265 0.0 1.0 0.00 0.00 0.00 39 1008.7
20260506003529 78 273 0.0 3.0 0.00 0.00 0.00 39 1008.8
20260506003029 79 290 0.0 0.0 0.00 0.00 0.00 38 1008.8
20260506002530 78 267 0.0 0.0 0.00 0.00 0.00 40 1008.8
20260506002031 78 263 0.0 0.0 0.00 0.00 0.00 39 1008.8
20260506001527 78 38 0.0 0.0 0.00 0.00 0.00 40 1008.8
20260506001027 78 334 0.0 0.0 0.00 0.00 0.00 40 1008.8
20260506000527 78 249 0.0 0.0 0.00 0.00 0.00 40 1008.7
20260506000044 78 325 0.0 0.0 0.00 0.00 0.00 40 1008.8
20260505235526 78 26 0.0 1.0 0.00 0.00 0.00 41 1008.8
20260505235027 78 355 0.0 1.0 0.00 0.00 0.00 41 1008.8
20260505234538 77 305 0.0 0.0 0.00 0.00 0.00 41 1008.9
20260505234024 77 355 0.0 4.0 0.00 0.00 0.00 40 1009.0
20260505233523 77 334 0.0 4.0 0.00 0.00 0.00 40 1009.0
20260505233026 78 305 0.0 0.0 0.00 0.00 0.00 41 1009.0
20260505232526 78 344 0.0 0.0 0.00 0.00 0.00 40 1009.1
20260505232022 78 339 0.0 0.0 0.00 0.00 0.00 39 1009.0
20260505231522 77 72 0.0 0.0 0.00 0.00 0.00 39 1009.1
20260505231021 77 19 0.0 2.0 0.00 0.00 0.00 39 1009.2
20260505230521 77 317 0.0 2.0 0.00 0.00 0.00 38 1009.2
20260505230045 77 236 0.0 0.0 0.00 0.00 0.00 39 1009.2
20260505225523 77 10 0.0 0.0 0.00 0.00 0.00 38 1009.2
20260505225021 77 14 0.0 0.0 0.00 0.00 0.00 39 1009.3
20260505224534 77 315 0.0 1.0 0.00 0.00 0.00 39 1009.4
20260505224020 78 322 0.0 1.0 0.00 0.00 0.00 39 1009.4
20260505223519 78 12 0.0 0.0 0.00 0.00 0.00 38 1009.4
20260505223023 77 308 0.0 0.0 0.00 0.00 0.00 38 1009.6
20260505222522 77 261 0.0 0.0 0.00 0.00 0.00 38 1009.6
20260505222016 77 273 0.0 1.0 0.00 0.00 0.00 37 1009.6
20260505221518 76 264 0.0 1.0 0.00 0.00 0.00 38 1009.7
20260505221017 76 296 0.0 1.0 0.00 0.00 0.00 40 1009.7
20260505220515 76 291 0.0 1.0 0.00 0.00 0.00 37 1009.7
20260505220015 76 252 0.0 0.0 0.00 0.00 0.00 39 1009.9
20260505215516 76 346 0.0 1.0 0.00 0.00 0.00 40 1009.9
20260505215015 76 257 0.0 1.0 0.00 0.00 0.00 40 1010.0
20260505214519 76 252 0.0 0.0 0.00 0.00 0.00 39 1009.9
20260505214013 74 75 0.0 1.0 0.00 0.00 0.00 41 1010.0
20260505213511 74 344 0.0 1.0 0.00 0.00 0.00 41 1010.0
20260505213010 74 274 0.0 0.0 0.00 0.00 0.00 45 1010.0
20260505212510 74 299 0.0 3.0 0.00 0.00 0.00 45 1010.1
20260505212013 73 249 0.0 3.0 0.00 0.00 0.00 45 1010.1
20260505211514 73 296 0.0 1.0 0.00 0.00 0.00 45 1010.0
20260505211050 73 259 0.0 1.0 0.00 0.00 0.00 45 1010.2
20260505210506 72 254 0.0 3.0 0.00 0.00 0.00 46 1010.3
20260505210007 72 277 0.0 3.0 0.00 0.00 0.00 44 1010.3
20260505205506 72 284 0.0 0.0 0.00 0.00 0.00 45 1010.3
20260505205003 72 279 0.0 0.0 0.00 0.00 0.00 45 1010.5
20260505204504 71 259 0.0 2.0 0.00 0.00 0.00 45 1010.5
20260505204003 71 261 0.0 2.0 0.00 0.00 0.00 45 1010.6
20260505203502 71 360 0.0 0.0 0.00 0.00 0.00 46 1010.6
20260505203007 70 290 0.0 0.0 0.00 0.00 0.00 46 1010.6
20260505202502 71 303 0.0 0.0 0.00 0.00 0.00 48 1010.6
20260505202002 71 263 0.0 0.0 0.00 0.00 0.00 48 1010.6
20260505201559 71 284 0.0 0.0 0.00 0.00 0.00 50 1010.7
20260505201058 69 234 0.0 1.0 0.00 0.00 0.00 52 1010.8
20260505200558 68 267 0.0 1.0 0.00 0.00 0.00 52 1010.9
20260505200058 69 261 0.0 0.0 0.00 0.00 0.00 52 1010.9
20260505195601 69 319 0.0 0.0 0.00 0.00 0.00 52 1010.9
20260505195057 69 57 0.0 0.0 0.00 0.00 0.00 50 1010.8
20260505194616 68 279 0.0 0.0 0.00 0.00 0.00 53 1010.9
20260505194054 68 12 0.0 1.0 0.00 0.00 0.00 53 1011.0
20260505193553 68 302 0.0 1.0 0.00 0.00 0.00 53 1011.0
20260505193052 68 278 0.0 0.0 0.00 0.00 0.00 53 1010.9
20260505192549 67 317 0.0 0.0 0.00 0.00 0.00 52 1011.0
20260505192048 67 226 0.0 0.0 0.00 0.00 0.00 52 1011.0
20260505191556 67 268 0.0 0.0 0.00 0.00 0.00 53 1011.0
20260505191046 67 88 0.0 0.0 0.00 0.00 0.00 53 1011.0
20260505190547 66 264 0.0 0.0 0.00 0.00 0.00 54 1011.1
20260505190043 67 244 0.0 0.0 0.00 0.00 0.00 55 1011.1
20260505185545 66 269 0.0 0.0 0.00 0.00 0.00 55 1011.2
20260505185041 66 257 0.0 0.0 0.00 0.00 0.00 57 1011.2
20260505184540 65 242 0.0 0.0 0.00 0.00 0.00 56 1011.2
20260505184038 65 236 0.0 0.0 0.00 0.00 0.00 58 1011.2
20260505183537 64 295 0.0 0.0 0.00 0.00 0.00 59 1011.3
20260505183035 64 269 0.0 0.0 0.00 0.00 0.00 58 1011.3
20260505182534 64 232 0.0 0.0 0.00 0.00 0.00 58 1011.3
20260505182033 65 277 0.0 0.0 0.00 0.00 0.00 58 1011.3
20260505181536 65 262 0.0 0.0 0.00 0.00 0.00 59 1011.3
20260505181030 64 216 0.0 0.0 0.00 0.00 0.00 60 1011.3
20260505180531 64 271 0.0 0.0 0.00 0.00 0.00 60 1011.4
20260505180040 64 243 0.0 0.0 0.00 0.00 0.00 60 1011.4
20260505175530 64 311 0.0 0.0 0.00 0.00 0.00 60 1011.4
20260505175029 64 261 0.0 1.0 0.00 0.00 0.00 61 1011.4
20260505174532 64 260 0.0 1.0 0.00 0.00 0.00 60 1011.4
20260505174031 64 221 0.0 0.0 0.00 0.00 0.00 60 1011.4
20260505173531 63 233 0.0 0.0 0.00 0.00 0.00 63 1011.4
20260505173028 62 234 0.0 0.0 0.00 0.00 0.00 62 1011.4
20260505172525 62 262 0.0 0.0 0.00 0.00 0.00 64 1011.4
20260505172022 61 326 0.0 0.0 0.00 0.00 0.00 65 1011.5
20260505171521 61 307 0.0 0.0 0.00 0.00 0.00 66 1011.5
20260505171019 60 303 0.0 0.0 0.00 0.00 0.00 68 1011.5
20260505170518 59 65 0.0 0.0 0.00 0.00 0.00 69 1011.5
20260505170020 59 257 0.0 0.0 0.00 0.00 0.00 70 1011.7
20260505165515 58 259 0.0 0.0 0.00 0.00 0.00 71 1011.7
20260505165014 58 350 0.0 0.0 0.00 0.00 0.00 72 1011.7
20260505164513 57 272 0.0 0.0 0.00 0.00 0.00 73 1011.8
20260505164012 57 286 0.0 0.0 0.00 0.00 0.00 74 1011.8
20260505163514 57 286 0.0 0.0 0.00 0.00 0.00 74 1011.8
20260505163015 57 259 0.0 0.0 0.00 0.00 0.00 75 1011.8
20260505162508 56 259 0.0 0.0 0.00 0.00 0.00 76 1011.8
20260505162010 56 273 0.0 0.0 0.00 0.00 0.00 76 1011.8
20260505161507 56 273 0.0 0.0 0.00 0.00 0.00 76 1011.8
20260505161007 56 265 0.0 0.0 0.00 0.00 0.00 75 1011.8
20260505160507 56 266 0.0 0.0 0.00 0.00 0.00 76 1011.8
20260505153004 55 266 0.0 0.0 0.00 0.00 0.00 79 1011.7
20260505152501 55 264 0.0 0.0 0.00 0.00 0.00 79 1011.7
20260505152101 55 244 0.0 0.0 0.00 0.00 0.00 79 1011.7
20260505151601 55 279 0.0 0.0 0.00 0.00 0.00 79 1011.6
20260505151058 55 279 0.0 0.0 0.00 0.00 0.00 80 1011.5
20260505150557 55 279 0.0 0.0 0.00 0.00 0.00 80 1011.5
20260505150111 55 279 0.0 0.0 0.00 0.00 0.00 80 1011.5
20260505140544 54 297 0.0 0.0 0.00 0.00 0.00 83 1011.2
20260505125034 54 301 0.0 0.0 0.00 0.00 0.00 82 1010.5
20260505124542 54 309 0.0 0.0 0.00 0.00 0.00 81 1010.5
20260505124033 54 301 0.0 0.0 0.00 0.00 0.00 82 1010.4
20260505123533 54 301 0.0 0.0 0.00 0.00 0.00 82 1010.5
20260505123035 54 316 0.0 0.0 0.00 0.00 0.00 81 1010.4
20260505122532 54 313 0.0 0.0 0.00 0.00 0.00 81 1010.4
20260505122032 54 325 0.0 0.0 0.00 0.00 0.00 81 1010.4
20260505121559 54 343 0.0 0.0 0.00 0.00 0.00 81 1010.4
20260505121031 54 313 0.0 0.0 0.00 0.00 0.00 81 1010.3
20260505120530 54 313 0.0 0.0 0.00 0.00 0.00 81 1010.3
20260505120029 54 309 0.0 0.0 0.00 0.00 0.00 81 1010.3
20260505115530 54 299 0.0 0.0 0.00 0.00 0.00 81 1010.2
20260505115029 54 309 0.0 0.0 0.00 0.00 0.00 81 1010.1
20260505114530 54 309 0.0 0.0 0.00 0.00 0.00 81 1010.1
20260505114028 54 341 0.0 0.0 0.00 0.00 0.00 81 1010.1
20260505113528 54 320 0.0 0.0 0.00 0.00 0.00 81 1010.0
20260505113030 54 313 0.0 0.0 0.00 0.00 0.00 81 1010.0
20260505112530 54 303 0.0 0.0 0.00 0.00 0.00 82 1010.0
20260505112027 54 301 0.0 0.0 0.00 0.00 0.00 82 1010.0
20260505111534 54 298 0.0 0.0 0.00 0.00 0.00 82 1009.9
20260505111025 54 300 0.0 0.0 0.00 0.00 0.00 82 1009.9
20260505110526 54 312 0.0 0.0 0.00 0.00 0.00 82 1009.8
20260505102024 54 329 0.0 0.0 0.00 0.00 0.00 82 1009.7
20260505101524 54 348 0.0 0.0 0.00 0.00 0.00 82 1009.7
20260505101023 54 321 0.0 0.0 0.00 0.00 0.00 82 1009.7
20260505100524 54 355 0.0 0.0 0.00 0.00 0.00 82 1009.7
20260505100034 54 317 0.0 0.0 0.00 0.00 0.00 82 1009.7
20260505095524 54 320 0.0 0.0 0.00 0.00 0.00 82 1009.7
20260505095022 54 311 0.0 1.0 0.00 0.00 0.00 82 1009.7
20260505094522 54 355 0.0 0.0 0.00 0.00 0.00 82 1009.8
20260505094022 54 316 0.0 0.0 0.00 0.00 0.00 82 1009.8
20260505093523 54 313 0.0 0.0 0.00 0.00 0.00 82 1009.8
20260505093028 54 330 0.0 0.0 0.00 0.00 0.00 82 1009.9
20260505092522 54 321 0.0 1.0 0.00 0.00 0.00 82 1009.8
20260505092022 54 15 0.0 1.0 0.00 0.00 0.00 82 1009.8
20260505091527 54 27 0.0 1.0 0.00 0.00 0.00 82 1009.8
20260505091021 54 319 0.0 0.0 0.00 0.00 0.00 81 1009.7
20260505090519 54 355 0.0 1.0 0.00 0.00 0.00 81 1009.7
20260505090020 54 333 0.0 3.0 0.00 0.00 0.00 81 1009.8
20260505085519 54 348 0.0 3.0 0.00 0.00 0.00 81 1009.8
20260505085022 54 350 0.0 1.0 0.00 0.00 0.00 81 1009.7
20260505084522 54 360 0.0 0.0 0.00 0.00 0.00 80 1009.8
20260505084018 54 333 0.0 3.0 0.00 0.00 0.00 80 1009.7
20260505083519 55 347 0.0 3.0 0.00 0.00 0.00 80 1009.7
20260505083029 55 311 0.0 1.0 0.00 0.00 0.00 80 1009.7
20260505082516 55 336 0.0 1.0 0.00 0.00 0.00 80 1009.7
20260505082017 55 355 0.0 1.0 0.00 0.00 0.00 80 1009.7
20260505081517 55 309 0.0 8.0 0.00 0.00 0.00 80 1009.7
20260505081015 55 355 1.0 8.0 0.00 0.00 0.00 80 1009.7
20260505080514 55 360 0.0 4.0 0.00 0.00 0.00 80 1009.7
20260505080017 55 306 0.0 3.0 0.00 0.00 0.00 79 1009.7
20260505075513 55 311 0.0 1.0 0.00 0.00 0.00 79 1009.6
20260505075013 55 335 0.0 1.0 0.00 0.00 0.00 79 1009.6
20260505074512 55 336 0.0 4.0 0.00 0.00 0.00 78 1009.6
20260505074014 56 5 0.0 4.0 0.00 0.00 0.00 78 1009.6
20260505073511 56 336 0.0 3.0 0.00 0.00 0.00 78 1009.5
20260505073012 56 344 0.0 3.0 0.00 0.00 0.00 77 1009.5
20260505072511 56 5 0.0 1.0 0.00 0.00 0.00 77 1009.5
20260505072009 56 355 0.0 1.0 0.00 0.00 0.00 77 1009.4
20260505071508 56 333 0.0 1.0 0.00 0.00 0.00 76 1009.4
20260505071008 57 334 0.0 9.0 0.00 0.00 0.00 76 1009.3
20260505070511 57 303 0.0 9.0 0.00 0.00 0.00 76 1009.4
20260505070006 57 334 0.0 5.0 0.00 0.00 0.00 75 1009.2
20260505065507 57 308 0.0 5.0 0.00 0.00 0.00 75 1009.2
20260505065010 57 355 0.0 6.0 0.00 0.00 0.00 75 1009.1
20260505064506 58 343 0.0 9.0 0.00 0.00 0.00 74 1009.1
20260505064005 58 340 1.0 9.0 0.00 0.00 0.00 74 1009.0
20260505063505 58 333 0.0 10.0 0.00 0.00 0.00 74 1008.9
20260505063005 58 5 1.0 12.0 0.00 0.00 0.00 73 1008.9
20260505062506 58 302 1.0 12.0 0.00 0.00 0.00 73 1008.8
20260505062004 58 318 0.0 12.0 0.00 0.00 0.00 73 1008.7
20260505061505 59 323 1.0 14.0 0.00 0.00 0.00 73 1008.7
20260505061004 59 348 1.0 14.0 0.00 0.00 0.00 72 1008.7
20260505060504 59 311 0.0 11.0 0.00 0.00 0.00 72 1008.6
20260505060004 59 311 0.0 4.0 0.00 0.00 0.00 72 1008.6
20260505055504 59 335 0.0 5.0 0.00 0.00 0.00 72 1008.5
20260505055004 59 44 0.0 5.0 0.00 0.00 0.00 71 1008.5
20260505054504 59 339 0.0 9.0 0.00 0.00 0.00 71 1008.5
20260505054004 60 344 1.0 9.0 0.00 0.00 0.00 71 1008.5
20260505053504 60 328 0.0 9.0 0.00 0.00 0.00 71 1008.4
20260505053005 60 326 0.0 3.0 0.00 0.00 0.00 70 1008.4
20260505052503 60 308 0.0 0.0 0.00 0.00 0.00 70 1008.3
20260505052004 60 309 0.0 0.0 0.00 0.00 0.00 70 1008.3
20260505051502 61 296 0.0 0.0 0.00 0.00 0.00 69 1008.3
20260505051003 61 306 0.0 1.0 0.00 0.00 0.00 69 1008.2
20260505050502 61 315 0.0 1.0 0.00 0.00 0.00 69 1008.2
20260505041610 64 309 0.0 10.0 0.00 0.00 0.00 63 1007.3
20260505041100 64 295 0.0 10.0 0.00 0.00 0.00 62 1007.2
20260505040600 65 333 0.0 6.0 0.00 0.00 0.00 62 1007.2
20260505040105 65 300 0.0 7.0 0.00 0.00 0.00 60 1007.1
20260505035559 65 309 0.0 7.0 0.00 0.00 0.00 59 1006.9
20260505035059 66 329 0.0 0.0 0.00 0.00 0.00 57 1006.8
20260505034600 66 313 0.0 0.0 0.00 0.00 0.00 56 1006.7
20260505034102 66 319 0.0 0.0 0.00 0.00 0.00 54 1006.6
20260505033559 67 340 0.0 1.0 0.00 0.00 0.00 53 1006.5